TimeCDT,TemperatureF,Dew PointF,Humidity,Sea Level PressureIn,VisibilityMPH,Wind Direction,Wind SpeedMPH,Gust SpeedMPH,PrecipitationIn,Events,Conditions,WindDirDegrees,DateUTC
12:15 AM,78.8,66.2,65,30.04,10.0,ENE,5.8,-,N/A,,Overcast,60,2013-08-10 05:15:00
12:35 AM,77.0,66.2,69,30.04,10.0,ENE,5.8,-,N/A,,Mostly Cloudy,60,2013-08-10 05:35:00
12:55 AM,77.0,66.2,69,30.04,10.0,NE,5.8,-,N/A,,Overcast,50,2013-08-10 05:55:00
1:15 AM,77.0,66.2,69,30.03,10.0,NE,5.8,-,N/A,,Overcast,40,2013-08-10 06:15:00
1:35 AM,77.0,66.2,69,30.02,10.0,NE,6.9,-,N/A,,Overcast,50,2013-08-10 06:35:00
1:55 AM,77.0,66.2,69,30.03,10.0,ENE,5.8,-,N/A,,Mostly Cloudy,60,2013-08-10 06:55:00
2:15 AM,77.0,66.2,69,30.03,10.0,East,4.6,-,N/A,,Mostly Cloudy,80,2013-08-10 07:15:00
2:35 AM,77.0,66.2,69,30.03,10.0,ENE,6.9,-,N/A,,Overcast,60,2013-08-10 07:35:00
2:55 AM,77.0,66.2,69,30.03,10.0,ENE,4.6,-,N/A,,Overcast,70,2013-08-10 07:55:00
3:15 AM,75.2,66.2,73,30.03,10.0,East,5.8,-,N/A,,Mostly Cloudy,80,2013-08-10 08:15:00
3:35 AM,75.2,64.4,69,30.03,10.0,SE,3.5,-,N/A,,Mostly Cloudy,130,2013-08-10 08:35:00
3:55 AM,75.2,64.4,69,30.02,10.0,East,3.5,-,N/A,,Scattered Clouds,80,2013-08-10 08:55:00
4:15 AM,75.2,64.4,69,30.03,10.0,NE,3.5,-,N/A,,Scattered Clouds,50,2013-08-10 09:15:00
4:35 AM,75.2,64.4,69,30.03,8.0,Calm,Calm,-,N/A,,Scattered Clouds,0,2013-08-10 09:35:00
4:55 AM,75.2,64.4,69,30.03,8.0,Calm,Calm,-,N/A,,Partly Cloudy,0,2013-08-10 09:55:00
5:15 AM,75.2,64.4,69,30.03,7.0,Calm,Calm,-,N/A,,Scattered Clouds,0,2013-08-10 10:15:00
5:35 AM,75.2,64.4,69,30.04,7.0,Calm,Calm,-,N/A,,Partly Cloudy,0,2013-08-10 10:35:00
5:55 AM,75.2,64.4,69,30.05,6.0,East,3.5,-,N/A,,Partly Cloudy,80,2013-08-10 10:55:00
6:15 AM,75.2,64.4,69,30.06,5.0,NE,4.6,-,N/A,,Scattered Clouds,40,2013-08-10 11:15:00
6:35 AM,75.2,64.4,69,30.06,8.0,NE,5.8,-,N/A,,Overcast,40,2013-08-10 11:35:00
6:55 AM,75.2,64.4,69,30.07,10.0,NE,4.6,-,N/A,,Overcast,50,2013-08-10 11:55:00
7:15 AM,75.2,64.4,69,30.08,10.0,NNW,3.5,-,N/A,,Overcast,330,2013-08-10 12:15:00
7:35 AM,75.2,64.4,69,30.09,10.0,NNW,3.5,-,N/A,Thunderstorm,Overcast,330,2013-08-10 12:35:00
7:55 AM,73.4,62.6,69,30.11,9.0,WNW,13.8,24.2,N/A,,Overcast,300,2013-08-10 12:55:00
8:15 AM,71.6,60.8,69,30.10,10.0,NNW,4.6,-,0.03,,Overcast,330,2013-08-10 13:15:00
8:35 AM,71.6,60.8,69,30.11,10.0,NW,4.6,-,0.03,,Mostly Cloudy,320,2013-08-10 13:35:00
8:55 AM,73.4,60.8,65,30.13,10.0,West,6.9,-,0.03,Thunderstorm,Overcast,270,2013-08-10 13:55:00
9:15 AM,71.6,60.8,69,30.13,5.0,NW,5.8,19.6,0.17,Thunderstorm,Mostly Cloudy,320,2013-08-10 14:15:00
9:35 AM,71.6,60.8,69,30.13,5.0,Calm,Calm,-,0.30,,Mostly Cloudy,0,2013-08-10 14:35:00
9:55 AM,71.6,60.8,69,30.12,6.0,East,4.6,-,0.34,,Overcast,80,2013-08-10 14:55:00
10:15 AM,71.6,60.8,69,30.13,10.0,ESE,5.8,-,0.01,,Overcast,120,2013-08-10 15:15:00
10:35 AM,71.6,62.6,73,30.13,10.0,East,3.5,-,0.01,,Overcast,80,2013-08-10 15:35:00
10:55 AM,73.4,62.6,69,30.14,5.0,ENE,3.5,-,0.04,,Overcast,60,2013-08-10 15:55:00
11:15 AM,73.4,62.6,69,30.14,10.0,Calm,Calm,-,0.01,,Overcast,0,2013-08-10 16:15:00
11:35 AM,73.4,62.6,69,30.13,10.0,Calm,Calm,-,0.04,,Overcast,0,2013-08-10 16:35:00
11:55 AM,73.4,62.6,69,30.12,10.0,SE,3.5,-,0.05,,Overcast,140,2013-08-10 16:55:00
12:15 PM,73.4,64.4,73,30.12,10.0,Calm,Calm,-,0.01,,Overcast,0,2013-08-10 17:15:00
12:35 PM,75.2,64.4,69,30.12,10.0,SW,3.5,-,0.02,,Overcast,220,2013-08-10 17:35:00
12:55 PM,75.2,64.4,69,30.13,10.0,SW,8.1,-,0.02,,Mostly Cloudy,230,2013-08-10 17:55:00
1:15 PM,75.2,64.4,69,30.12,10.0,SSW,6.9,-,N/A,,Overcast,210,2013-08-10 18:15:00
1:35 PM,75.2,64.4,69,30.11,10.0,SW,4.6,-,N/A,,Mostly Cloudy,220,2013-08-10 18:35:00
1:55 PM,75.2,64.4,69,30.11,10.0,SW,4.6,-,N/A,,Mostly Cloudy,220,2013-08-10 18:55:00
2:15 PM,75.2,62.6,65,30.08,10.0,Calm,Calm,-,N/A,,Scattered Clouds,0,2013-08-10 19:15:00
2:35 PM,75.2,64.4,69,30.08,10.0,Calm,Calm,-,0.01,,Scattered Clouds,0,2013-08-10 19:35:00
2:55 PM,75.2,62.6,65,30.08,3.0,NW,4.6,-,0.01,,Scattered Clouds,310,2013-08-10 19:55:00
3:15 PM,77.0,62.6,61,30.07,0.2,North,5.8,-,N/A,,Overcast,350,2013-08-10 20:15:00
3:35 PM,78.8,64.4,61,30.06,5.0,NNE,4.6,-,N/A,,Mostly Cloudy,20,2013-08-10 20:35:00
3:55 PM,78.8,62.6,57,30.06,10.0,NW,3.5,-,N/A,,Mostly Cloudy,320,2013-08-10 20:55:00
4:15 PM,78.8,62.6,57,30.06,10.0,North,3.5,-,N/A,,Mostly Cloudy,350,2013-08-10 21:15:00
4:35 PM,80.6,64.4,58,30.05,10.0,Calm,Calm,-,N/A,,Mostly Cloudy,0,2013-08-10 21:35:00
4:55 PM,80.6,64.4,58,30.05,10.0,East,4.6,-,N/A,,Mostly Cloudy,100,2013-08-10 21:55:00
5:15 PM,80.6,64.4,58,30.06,10.0,East,3.5,-,N/A,,Overcast,90,2013-08-10 22:15:00
5:35 PM,78.8,64.4,61,30.06,10.0,ESE,4.6,-,N/A,,Mostly Cloudy,110,2013-08-10 22:35:00
5:55 PM,80.6,64.4,58,30.07,10.0,Calm,Calm,-,N/A,,Scattered Clouds,0,2013-08-10 22:55:00
6:15 PM,80.6,64.4,58,30.07,10.0,Calm,Calm,-,N/A,,Scattered Clouds,0,2013-08-10 23:15:00
6:35 PM,80.6,64.4,58,30.07,10.0,Calm,Calm,-,N/A,,Mostly Cloudy,0,2013-08-10 23:35:00
6:55 PM,78.8,64.4,61,30.07,10.0,Calm,Calm,-,N/A,,Overcast,0,2013-08-10 23:55:00
7:15 PM,78.8,64.4,61,30.06,10.0,Calm,Calm,-,N/A,,Overcast,0,2013-08-11 00:15:00
7:35 PM,78.8,64.4,61,30.06,10.0,Calm,Calm,-,N/A,,Overcast,0,2013-08-11 00:35:00
7:55 PM,78.8,64.4,61,30.07,5.0,Calm,Calm,-,N/A,,Overcast,0,2013-08-11 00:55:00
8:15 PM,78.8,64.4,61,30.08,10.0,Calm,Calm,-,N/A,,Overcast,0,2013-08-11 01:15:00
8:35 PM,77.0,64.4,65,30.08,10.0,Calm,Calm,-,N/A,,Overcast,0,2013-08-11 01:35:00
8:55 PM,77.0,64.4,65,30.08,10.0,Calm,Calm,-,N/A,,Overcast,0,2013-08-11 01:55:00
9:15 PM,77.0,64.4,65,30.08,9.0,Calm,Calm,-,N/A,,Overcast,0,2013-08-11 02:15:00
9:35 PM,75.2,64.4,69,30.09,10.0,Calm,Calm,-,N/A,,Overcast,0,2013-08-11 02:35:00
9:55 PM,75.2,64.4,69,30.10,10.0,Calm,Calm,-,N/A,,Overcast,0,2013-08-11 02:55:00
10:15 PM,75.2,64.4,69,30.10,10.0,Calm,Calm,-,N/A,,Mostly Cloudy,0,2013-08-11 03:15:00
10:35 PM,75.2,64.4,69,30.11,10.0,Calm,Calm,-,N/A,,Mostly Cloudy,0,2013-08-11 03:35:00
10:55 PM,75.2,64.4,69,30.10,10.0,Calm,Calm,-,N/A,,Overcast,0,2013-08-11 03:55:00
11:15 PM,75.2,64.4,69,30.10,9.0,Calm,Calm,-,N/A,,Overcast,0,2013-08-11 04:15:00
11:35 PM,75.2,64.4,69,30.10,10.0,Calm,Calm,-,N/A,,Overcast,0,2013-08-11 04:35:00
11:55 PM,75.2,64.4,69,30.10,10.0,Calm,Calm,-,N/A,,Overcast,0,2013-08-11 04:55:00